| time (UTC) | temp C | wind direction | speed KPH | gust KPH | rain 1hr cm | rain 24hr cm | rain mn cm | humidity % | barometer mb |
| 20260504002150 | 10 | 239 | 0.0 | 0.0 | 0.00 | 0.00 | 0.00 | 54 | 1016.3 |
| 20260504001648 | 10 | 237 | 0.0 | 0.0 | 0.00 | 0.00 | 0.00 | 53 | 1016.4 |
| 20260504001144 | 11 | 258 | 0.0 | 0.0 | 0.00 | 0.00 | 0.00 | 49 | 1016.3 |
| 20260504000641 | 12 | 333 | 0.0 | 0.0 | 0.00 | 0.00 | 0.00 | 45 | 1016.3 |
| 20260504000139 | 12 | 269 | 0.0 | 0.0 | 0.00 | 0.00 | 0.00 | 45 | 1016.3 |
| 20260503235637 | 13 | 271 | 0.0 | 0.0 | 0.00 | 0.00 | 0.00 | 39 | 1016.3 |
| 20260503235133 | 13 | 279 | 0.0 | 0.0 | 0.00 | 0.00 | 0.00 | 39 | 1016.3 |
| 20260503234631 | 14 | 294 | 0.0 | 0.0 | 0.00 | 0.00 | 0.00 | 34 | 1016.0 |
| 20260503234129 | 15 | 274 | 0.0 | 0.0 | 0.00 | 0.00 | 0.00 | 33 | 1016.1 |
| 20260503233626 | 15 | 269 | 0.0 | 0.0 | 0.00 | 0.00 | 0.00 | 31 | 1016.1 |
| 20260503233121 | 15 | 286 | 0.0 | 0.0 | 0.00 | 0.00 | 0.00 | 31 | 1016.0 |
| 20260503232619 | 15 | 275 | 0.0 | 1.6 | 0.00 | 0.00 | 0.00 | 31 | 1015.9 |
| 20260503232116 | 15 | 327 | 0.0 | 6.4 | 0.00 | 0.00 | 0.00 | 30 | 1015.9 |
| 20260503231614 | 15 | 268 | 0.0 | 0.0 | 0.00 | 0.00 | 0.00 | 31 | 1016.0 |
| 20260503231110 | 15 | 313 | 1.6 | 4.8 | 0.00 | 0.00 | 0.00 | 30 | 1015.9 |
| 20260503230607 | 16 | 352 | 0.0 | 1.6 | 0.00 | 0.00 | 0.00 | 30 | 1016.0 |
| 20260503230104 | 16 | 271 | 6.4 | 14.5 | 0.00 | 0.00 | 0.00 | 29 | 1015.9 |
| 20260503225601 | 16 | 260 | 1.6 | 3.2 | 0.00 | 0.00 | 0.00 | 31 | 1015.9 |
| 20260503225056 | 16 | 263 | 0.0 | 3.2 | 0.00 | 0.00 | 0.00 | 30 | 1015.8 |
| 20260503224554 | 16 | 321 | 0.0 | 4.8 | 0.00 | 0.00 | 0.00 | 29 | 1015.9 |
| 20260503224052 | 16 | 254 | 0.0 | 9.7 | 0.00 | 0.00 | 0.00 | 31 | 1015.6 |
| 20260503223550 | 16 | 327 | 0.0 | 4.8 | 0.00 | 0.00 | 0.00 | 28 | 1015.8 |
| 20260503223045 | 17 | 265 | 1.6 | 9.7 | 0.00 | 0.00 | 0.00 | 29 | 1015.7 |
| 20260503222543 | 17 | 232 | 1.6 | 4.8 | 0.00 | 0.00 | 0.00 | 27 | 1015.8 |
| 20260503222041 | 17 | 284 | 0.0 | 6.4 | 0.00 | 0.00 | 0.00 | 28 | 1015.7 |
| 20260503221539 | 17 | 254 | 3.2 | 4.8 | 0.00 | 0.00 | 0.00 | 27 | 1015.9 |
| 20260503221036 | 17 | 283 | 1.6 | 4.8 | 0.00 | 0.00 | 0.00 | 27 | 1015.9 |
| 20260503220532 | 17 | 290 | 3.2 | 9.7 | 0.00 | 0.00 | 0.00 | 28 | 1016.0 |
| 20260503220029 | 17 | 208 | 0.0 | 4.8 | 0.00 | 0.00 | 0.00 | 28 | 1016.1 |
| 20260503215527 | 17 | 336 | 0.0 | 6.4 | 0.00 | 0.00 | 0.00 | 28 | 1016.0 |
| 20260503215023 | 17 | 284 | 3.2 | 11.3 | 0.00 | 0.00 | 0.00 | 29 | 1015.9 |
| 20260503214522 | 18 | 267 | 1.6 | 9.7 | 0.00 | 0.00 | 0.00 | 27 | 1015.9 |
| 20260503214018 | 17 | 281 | 1.6 | 9.7 | 0.00 | 0.00 | 0.00 | 28 | 1016.0 |
| 20260503213516 | 18 | 243 | 0.0 | 1.6 | 0.00 | 0.00 | 0.00 | 27 | 1016.0 |
| 20260503213013 | 18 | 1 | 0.0 | 4.8 | 0.00 | 0.00 | 0.00 | 27 | 1015.9 |
| 20260503212511 | 18 | 317 | 0.0 | 0.0 | 0.00 | 0.00 | 0.00 | 28 | 1016.0 |
| 20260503212008 | 17 | 41 | 0.0 | 4.8 | 0.00 | 0.00 | 0.00 | 27 | 1015.8 |
| 20260503211505 | 18 | 285 | 3.2 | 14.5 | 0.00 | 0.00 | 0.00 | 28 | 1016.1 |
| 20260503211000 | 18 | 233 | 8.0 | 9.7 | 0.00 | 0.00 | 0.00 | 27 | 1016.0 |
| 20260503210457 | 18 | 23 | 0.0 | 6.4 | 0.00 | 0.00 | 0.00 | 29 | 1016.0 |
| 20260503205951 | 18 | 222 | 6.4 | 11.3 | 0.00 | 0.00 | 0.00 | 28 | 1016.0 |
| 20260503205448 | 18 | 250 | 6.4 | 11.3 | 0.00 | 0.00 | 0.00 | 27 | 1015.9 |
| 20260503204944 | 18 | 191 | 4.8 | 9.7 | 0.00 | 0.00 | 0.00 | 27 | 1016.0 |
| 20260503204442 | 17 | 354 | 4.8 | 9.7 | 0.00 | 0.00 | 0.00 | 27 | 1016.0 |
| 20260503203938 | 17 | 306 | 3.2 | 14.5 | 0.00 | 0.00 | 0.00 | 27 | 1016.0 |
| 20260503203436 | 18 | 313 | 3.2 | 9.7 | 0.00 | 0.00 | 0.00 | 26 | 1015.8 |
| 20260503202933 | 17 | 53 | 0.0 | 11.3 | 0.00 | 0.00 | 0.00 | 29 | 1016.3 |
| 20260503202432 | 18 | 167 | 8.0 | 16.1 | 0.00 | 0.00 | 0.00 | 27 | 1016.2 |
| 20260503201930 | 17 | 273 | 3.2 | 16.1 | 0.00 | 0.00 | 0.00 | 27 | 1016.2 |
| 20260503201427 | 17 | 308 | 3.2 | 11.3 | 0.00 | 0.00 | 0.00 | 28 | 1016.2 |
| 20260503200924 | 17 | 10 | 6.4 | 11.3 | 0.00 | 0.00 | 0.00 | 28 | 1016.2 |
| 20260503200420 | 18 | 269 | 11.3 | 16.1 | 0.00 | 0.00 | 0.00 | 27 | 1016.6 |
| 20260503195917 | 17 | 21 | 0.0 | 1.6 | 0.00 | 0.00 | 0.00 | 31 | 1016.4 |
| 20260503195414 | 17 | 269 | 4.8 | 6.4 | 0.00 | 0.00 | 0.00 | 29 | 1016.5 |
| 20260503194910 | 17 | 300 | 0.0 | 6.4 | 0.00 | 0.00 | 0.00 | 27 | 1016.9 |
| 20260503194407 | 17 | 37 | 3.2 | 11.3 | 0.00 | 0.00 | 0.00 | 27 | 1016.7 |
| 20260503193903 | 17 | 5 | 0.0 | 4.8 | 0.00 | 0.00 | 0.00 | 29 | 1016.8 |
| 20260503193359 | 17 | 240 | 0.0 | 3.2 | 0.00 | 0.00 | 0.00 | 27 | 1016.7 |
| 20260503192854 | 17 | 26 | 0.0 | 9.7 | 0.00 | 0.00 | 0.00 | 29 | 1016.8 |
| 20260503192350 | 17 | 323 | 8.0 | 11.3 | 0.00 | 0.00 | 0.00 | 27 | 1016.7 |
| 20260503191847 | 17 | 46 | 1.6 | 6.4 | 0.00 | 0.00 | 0.00 | 27 | 1017.0 |
| 20260503191344 | 17 | 268 | 6.4 | 11.3 | 0.00 | 0.00 | 0.00 | 27 | 1017.2 |
| 20260503190841 | 17 | 252 | 0.0 | 9.7 | 0.00 | 0.00 | 0.00 | 32 | 1017.1 |
| 20260503190338 | 17 | 352 | 0.0 | 0.0 | 0.00 | 0.00 | 0.00 | 30 | 1017.1 |
| 20260503185835 | 17 | 231 | 9.7 | 14.5 | 0.00 | 0.00 | 0.00 | 30 | 1017.2 |
| 20260503185332 | 17 | 16 | 1.6 | 3.2 | 0.00 | 0.00 | 0.00 | 29 | 1017.3 |
| 20260503184831 | 16 | 25 | 6.4 | 11.3 | 0.00 | 0.00 | 0.00 | 29 | 1017.1 |
| 20260503184327 | 16 | 293 | 1.6 | 9.7 | 0.00 | 0.00 | 0.00 | 31 | 1017.5 |
| 20260503183823 | 16 | 117 | 1.6 | 11.3 | 0.00 | 0.00 | 0.00 | 29 | 1017.5 |
| 20260503183321 | 16 | 80 | 3.2 | 9.7 | 0.00 | 0.00 | 0.00 | 29 | 1017.4 |
| 20260503182818 | 16 | 66 | 8.0 | 14.5 | 0.00 | 0.00 | 0.00 | 28 | 1017.6 |
| 20260503182317 | 16 | 212 | 1.6 | 4.8 | 0.00 | 0.00 | 0.00 | 28 | 1017.4 |
| 20260503181814 | 17 | 249 | 6.4 | 9.7 | 0.00 | 0.00 | 0.00 | 28 | 1017.6 |
| 20260503181311 | 16 | 354 | 1.6 | 11.3 | 0.00 | 0.00 | 0.00 | 27 | 1017.6 |
| 20260503180807 | 16 | 315 | 3.2 | 6.4 | 0.00 | 0.00 | 0.00 | 31 | 1017.6 |
| 20260503180305 | 16 | 8 | 4.8 | 14.5 | 0.00 | 0.00 | 0.00 | 30 | 1017.7 |
| 20260503175801 | 16 | 258 | 3.2 | 12.9 | 0.00 | 0.00 | 0.00 | 30 | 1017.9 |
| 20260503175300 | 16 | 252 | 0.0 | 17.7 | 0.00 | 0.00 | 0.00 | 32 | 1017.9 |
| 20260503174755 | 15 | 281 | 1.6 | 3.2 | 0.00 | 0.00 | 0.00 | 33 | 1017.9 |
| 20260503174253 | 15 | 51 | 3.2 | 11.3 | 0.00 | 0.00 | 0.00 | 33 | 1017.9 |
| 20260503173748 | 16 | 31 | 3.2 | 9.7 | 0.00 | 0.00 | 0.00 | 31 | 1018.1 |
| 20260503173244 | 15 | 283 | 6.4 | 12.9 | 0.00 | 0.00 | 0.00 | 33 | 1018.2 |
| 20260503172741 | 15 | 289 | 3.2 | 11.3 | 0.00 | 0.00 | 0.00 | 32 | 1018.0 |
| 20260503172238 | 15 | 271 | 6.4 | 6.4 | 0.00 | 0.00 | 0.00 | 32 | 1018.2 |
| 20260503171735 | 15 | 323 | 1.6 | 3.2 | 0.00 | 0.00 | 0.00 | 33 | 1018.2 |
| 20260503171232 | 15 | 295 | 4.8 | 11.3 | 0.00 | 0.00 | 0.00 | 33 | 1018.2 |
| 20260503170729 | 15 | 315 | 4.8 | 9.7 | 0.00 | 0.00 | 0.00 | 35 | 1018.2 |
| 20260503170226 | 14 | 275 | 4.8 | 12.9 | 0.00 | 0.00 | 0.00 | 35 | 1018.5 |
| 20260503160148 | 13 | 66 | 0.0 | 9.7 | 0.00 | 0.00 | 0.00 | 41 | 1019.0 |
| 20260503150618 | 12 | 249 | 3.2 | 6.4 | 0.00 | 0.00 | 0.00 | 41 | 1019.4 |
| 20260503150114 | 12 | 233 | 3.2 | 12.9 | 0.00 | 0.00 | 0.00 | 41 | 1019.5 |
| 20260503131007 | 10 | 333 | 3.2 | 6.4 | 0.00 | 0.00 | 0.00 | 51 | 1019.9 |
| 20260503130504 | 10 | 339 | 4.8 | 6.4 | 0.00 | 0.00 | 0.00 | 50 | 1019.8 |
| 20260503110355 | 2 | 267 | 0.0 | 0.0 | 0.00 | 0.00 | 0.00 | 84 | 1018.9 |
| 20260503090246 | 4 | 267 | 0.0 | 3.2 | 0.00 | 0.00 | 0.00 | 67 | 1017.6 |
| 20260503081208 | 4 | 248 | 0.0 | 0.0 | 0.00 | 0.00 | 0.00 | 75 | 1017.5 |
| 20260503080704 | 5 | 248 | 0.0 | 0.0 | 0.00 | 0.00 | 0.00 | 77 | 1017.4 |
| 20260503080201 | 5 | 248 | 0.0 | 0.0 | 0.00 | 0.00 | 0.00 | 75 | 1017.5 |
| 20260503072638 | 3 | 326 | 0.0 | 0.0 | 0.00 | 0.00 | 0.00 | 78 | 1017.1 |
| 20260503072135 | 3 | 326 | 0.0 | 0.0 | 0.00 | 0.00 | 0.00 | 81 | 1017.2 |
| 20260503071632 | 3 | 326 | 0.0 | 0.0 | 0.00 | 0.00 | 0.00 | 79 | 1017.1 |
| 20260503071128 | 3 | 326 | 0.0 | 0.0 | 0.00 | 0.00 | 0.00 | 80 | 1017.1 |
| 20260503070625 | 3 | 326 | 0.0 | 0.0 | 0.00 | 0.00 | 0.00 | 81 | 1017.0 |
| 20260503070124 | 3 | 326 | 0.0 | 0.0 | 0.00 | 0.00 | 0.00 | 80 | 1016.9 |
| 20260503055044 | 3 | 326 | 0.0 | 0.0 | 0.00 | 0.00 | 0.00 | 76 | 1017.1 |
| 20260503054540 | 3 | 326 | 0.0 | 0.0 | 0.00 | 0.00 | 0.00 | 76 | 1016.9 |
| 20260503054037 | 3 | 326 | 0.0 | 0.0 | 0.00 | 0.00 | 0.00 | 78 | 1017.1 |
| 20260503053535 | 3 | 326 | 0.0 | 0.0 | 0.00 | 0.00 | 0.00 | 77 | 1017.2 |
| 20260503053033 | 3 | 234 | 0.0 | 0.0 | 0.00 | 0.00 | 0.00 | 83 | 1017.1 |
| 20260503052529 | 3 | 234 | 0.0 | 0.0 | 0.00 | 0.00 | 0.00 | 79 | 1016.9 |
| 20260503052026 | 3 | 234 | 0.0 | 0.0 | 0.00 | 0.00 | 0.00 | 78 | 1017.1 |
| 20260503051521 | 3 | 234 | 0.0 | 0.0 | 0.00 | 0.00 | 0.00 | 77 | 1016.9 |
| 20260503051019 | 3 | 234 | 0.0 | 0.0 | 0.00 | 0.00 | 0.00 | 75 | 1017.1 |
| 20260503050514 | 4 | 234 | 0.0 | 0.0 | 0.00 | 0.00 | 0.00 | 76 | 1017.1 |
| 20260503050012 | 5 | 234 | 0.0 | 0.0 | 0.00 | 0.00 | 0.00 | 72 | 1017.1 |
| 20260503045509 | 5 | 234 | 0.0 | 0.0 | 0.00 | 0.00 | 0.00 | 71 | 1017.2 |
| 20260503045006 | 5 | 234 | 0.0 | 0.0 | 0.00 | 0.00 | 0.00 | 70 | 1017.3 |
| 20260503044503 | 5 | 234 | 0.0 | 0.0 | 0.00 | 0.00 | 0.00 | 71 | 1017.3 |
| 20260503044001 | 5 | 234 | 0.0 | 0.0 | 0.00 | 0.00 | 0.00 | 71 | 1017.2 |
| 20260503043456 | 5 | 234 | 0.0 | 0.0 | 0.00 | 0.00 | 0.00 | 70 | 1017.1 |
| 20260503042953 | 5 | 234 | 0.0 | 0.0 | 0.00 | 0.00 | 0.00 | 69 | 1017.1 |
| 20260503042450 | 5 | 234 | 0.0 | 0.0 | 0.00 | 0.00 | 0.00 | 68 | 1016.9 |
| 20260503041947 | 5 | 234 | 0.0 | 0.0 | 0.00 | 0.00 | 0.00 | 66 | 1017.0 |
| 20260503041443 | 6 | 234 | 0.0 | 0.0 | 0.00 | 0.00 | 0.00 | 65 | 1017.1 |
| 20260503040941 | 6 | 234 | 0.0 | 0.0 | 0.00 | 0.00 | 0.00 | 64 | 1017.0 |
| 20260503040438 | 6 | 234 | 0.0 | 0.0 | 0.00 | 0.00 | 0.00 | 64 | 1017.0 |
| 20260503035935 | 6 | 233 | 0.0 | 0.0 | 0.00 | 0.00 | 0.00 | 62 | 1017.1 |
| 20260503035432 | 6 | 344 | 0.0 | 0.0 | 0.00 | 0.00 | 0.00 | 63 | 1017.1 |
| 20260503034930 | 6 | 339 | 0.0 | 3.2 | 0.00 | 0.00 | 0.00 | 62 | 1017.2 |
| 20260503034427 | 6 | 297 | 0.0 | 0.0 | 0.00 | 0.00 | 0.00 | 63 | 1016.9 |
| 20260503033923 | 6 | 316 | 0.0 | 0.0 | 0.00 | 0.00 | 0.00 | 64 | 1016.7 |
| 20260503033421 | 6 | 316 | 0.0 | 0.0 | 0.00 | 0.00 | 0.00 | 65 | 1016.8 |
| 20260503032919 | 6 | 7 | 0.0 | 0.0 | 0.00 | 0.00 | 0.00 | 65 | 1016.9 |
| 20260503032417 | 6 | 7 | 0.0 | 0.0 | 0.00 | 0.00 | 0.00 | 66 | 1017.0 |
| 20260503031914 | 6 | 7 | 0.0 | 0.0 | 0.00 | 0.00 | 0.00 | 63 | 1017.0 |
| 20260503031412 | 6 | 7 | 0.0 | 0.0 | 0.00 | 0.00 | 0.00 | 64 | 1016.9 |
| 20260503030908 | 7 | 8 | 0.0 | 0.0 | 0.00 | 0.00 | 0.00 | 60 | 1017.1 |
| 20260503030405 | 7 | 8 | 0.0 | 0.0 | 0.00 | 0.00 | 0.00 | 59 | 1017.1 |
| 20260503025901 | 7 | 278 | 0.0 | 0.0 | 0.00 | 0.00 | 0.00 | 58 | 1017.1 |
| 20260503025359 | 7 | 190 | 0.0 | 1.6 | 0.00 | 0.00 | 0.00 | 56 | 1017.1 |
| 20260503024856 | 7 | 304 | 0.0 | 1.6 | 0.00 | 0.00 | 0.00 | 56 | 1017.0 |
| 20260503024353 | 7 | 324 | 0.0 | 6.4 | 0.00 | 0.00 | 0.00 | 57 | 1017.0 |
| 20260503023849 | 7 | 227 | 0.0 | 3.2 | 0.00 | 0.00 | 0.00 | 56 | 1017.2 |
| 20260503023346 | 8 | 269 | 0.0 | 0.0 | 0.00 | 0.00 | 0.00 | 58 | 1017.2 |
| 20260503022843 | 8 | 325 | 3.2 | 4.8 | 0.00 | 0.00 | 0.00 | 54 | 1017.1 |
| 20260503022338 | 8 | 135 | 0.0 | 3.2 | 0.00 | 0.00 | 0.00 | 55 | 1017.1 |
| 20260503021835 | 8 | 189 | 0.0 | 6.4 | 0.00 | 0.00 | 0.00 | 55 | 1017.2 |
| 20260503021331 | 8 | 241 | 0.0 | 3.2 | 0.00 | 0.00 | 0.00 | 55 | 1017.1 |
| 20260503020829 | 8 | 102 | 0.0 | 3.2 | 0.00 | 0.00 | 0.00 | 55 | 1017.0 |
| 20260503020327 | 8 | 144 | 1.6 | 3.2 | 0.00 | 0.00 | 0.00 | 57 | 1016.8 |
| 20260503015823 | 8 | 23 | 1.6 | 9.7 | 0.00 | 0.00 | 0.00 | 55 | 1016.7 |
| 20260503015320 | 8 | 246 | 1.6 | 1.6 | 0.00 | 0.00 | 0.00 | 56 | 1016.9 |
| 20260503014815 | 8 | 260 | 0.0 | 6.4 | 0.00 | 0.00 | 0.00 | 55 | 1016.6 |
| 20260503014313 | 8 | 47 | 3.2 | 4.8 | 0.00 | 0.00 | 0.00 | 55 | 1016.7 |
| 20260503013810 | 9 | 155 | 0.0 | 0.0 | 0.00 | 0.00 | 0.00 | 56 | 1016.5 |
| 20260503013308 | 9 | 155 | 0.0 | 3.2 | 0.00 | 0.00 | 0.00 | 54 | 1016.4 |
| 20260503012805 | 9 | 189 | 0.0 | 3.2 | 0.00 | 0.00 | 0.00 | 56 | 1016.6 |
| 20260503012305 | 9 | 1 | 0.0 | 3.2 | 0.00 | 0.00 | 0.00 | 53 | 1016.4 |
| 20260503011759 | 10 | 344 | 4.8 | 9.7 | 0.00 | 0.00 | 0.00 | 52 | 1016.1 |
| 20260503011256 | 10 | 335 | 0.0 | 1.6 | 0.00 | 0.00 | 0.00 | 53 | 1016.3 |
| 20260503010752 | 10 | 140 | 0.0 | 6.4 | 0.00 | 0.00 | 0.00 | 53 | 1016.3 |
| 20260503010249 | 10 | 218 | 0.0 | 3.2 | 0.00 | 0.00 | 0.00 | 53 | 1016.1 |
| 20260503005746 | 10 | 4 | 0.0 | 0.0 | 0.00 | 0.00 | 0.00 | 53 | 1016.2 |
| 20260503005244 | 10 | 0 | 0.0 | 0.0 | 0.00 | 0.00 | 0.00 | 50 | 1016.1 |
| 20260503004739 | 10 | 345 | 0.0 | 1.6 | 0.00 | 0.00 | 0.00 | 52 | 1016.0 |
| 20260503004238 | 10 | 219 | 0.0 | 0.0 | 0.00 | 0.00 | 0.00 | 51 | 1015.8 |
| 20260503003735 | 10 | 289 | 0.0 | 11.3 | 0.00 | 0.00 | 0.00 | 49 | 1015.9 |
| 20260503003232 | 10 | 140 | 0.0 | 1.6 | 0.00 | 0.00 | 0.00 | 48 | 1015.5 |
| 20260503002728 | 10 | 321 | 0.0 | 0.0 | 0.00 | 0.00 | 0.00 | 49 | 1015.6 |